Regional Weather Roundup
Issued by NWS

Home | Current Version | Previous Version | Graphics & Text | Print | Product List | Glossary On
Versions: 1 2 3 4 5 6 7 8 9 10 11 12 13 14 15 16 17 18 19 20 21 22 23 24 25 26 27 28 29 30 31 32 33 34 35 36 37 38 39 40 41 42 43 44 45 46 47 48 49 50
000
ASUS43 KMPX 181701
RWRMN
WEATHER ROUNDUP FOR MINNESOTA
NATIONAL WEATHER SERVICE TWIN CITIES/CHANHASSEN MN
1200 PM CDT THU SEP 18 2014


NOTE: "FAIR" INDICATES FEW OR NO CLOUDS BELOW 12,000 FEET WITH NO
SIGNIFICANT WEATHER AND/OR OBSTRUCTIONS TO VISIBILITY. N/A MEANS
CURRENT SKY AND/OR WEATHER CONDITIONS ARE NOT AVAILABLE.

MNZ060>063-068>070-181800-
   Twin Cities Metro

CITY           SKY/WX    TMP DP  RH WIND       PRES   REMARKS
TWIN CITIES    MOSUNNY   61  53  75 E8        30.10S
ST PAUL        PTSUNNY   58  53  84 E5        30.11F
CRYSTAL        MOSUNNY   61  50  67 E7        30.09S
BLAINE         PTSUNNY   59  55  88 E7        30.10
LAKEVILLE      SUNNY     64  55  72 E3        30.09F
SOUTH ST PAUL  SUNNY     60  53  76 SE3       30.11S
LAKE ELMO      FAIR      59  54  82 E3        30.12S
$$
MNZ001>005-007-008-013>017-022>024-027-028-181800-
   Northwest Minnesota

CITY           SKY/WX    TMP DP  RH WIND       PRES   REMARKS
BEMIDJI        SUNNY     56  45  64 SE8       30.04F
HALLOCK        CLOUDY    57  52  82 S15       29.95F
ROSEAU         CLOUDY    52  46  82 SE10      30.00F
WARROAD        CLOUDY    48  45  87 SE8       30.02F
THIEF RVR FALL SUNNY     57  50  77 SE12      29.98F
CROOKSTON      SUNNY     61  54  77 S10       29.97F
FOSSTON        SUNNY     63  54  72 SE3       30.00F
DETROIT LAKES  PTSUNNY   54  50  87 SE13      30.02F
MOORHEAD       SUNNY     63  55  77 S10       29.98F
PARK RAPIDS      N/A     53  45  74 SE10      30.04F
MAHNOMEN       FAIR      58  50  75 SE10      29.99F
$$
MNZ006-009>011-018-025>026-181800-
   North Central Minnesota

CITY           SKY/WX    TMP DP  RH WIND       PRES   REMARKS
BAUDETTE       CLOUDY    46  44  93 SE9       30.05F
FLAG ISLAND    CLOUDY    46  45  93 SE16      30.02S
INTL FALLS     CLOUDY    47  41  80 SE12      30.08F
WASKISH        CLOUDY    50  46  87 SE3       30.06S
BIG FORK       CLOUDY    50  45  81 SE7       30.09F
LONGVILLE      SUNNY     54  45  71 S7        30.08S
GRAND RAPIDS   PTSUNNY   52  43  71 SE9       30.10F
CRANE LAKE     CLOUDY    46  39  76 SE3       30.13F
ORR            CLOUDY    52  39  62 SE6       30.08F
COOK           CLOUDY    48  41  76 S7        30.11F
WALKER         FAIR      53  44  72 SE5       30.06F
$$
MNZ012-019>021-037-181800-
   Northeast Minnesota

CITY           SKY/WX    TMP DP  RH WIND       PRES   REMARKS
DULUTH         PTSUNNY   48  39  71 E12       30.14F
ELY            CLOUDY    46  37  71 SE9       30.14S
HIBBING        CLOUDY    52  41  66 S10       30.11F
EVELETH        CLOUDY    50  41  71 SE12      30.13F
DULUTH HARBOR  CLOUDY    48  43  81 E8        30.17F
TWO HARBORS    CLOUDY    46  37  71 E12       30.15S
SILVER BAY     SUNNY     45  39  81 E9        30.16S
GRAND MARAIS     N/A     48  36  63 VRB3      30.21F
G MARAIS ARPRT PTSUNNY   41  30  65 SE3       30.19S
$$
MNZ029>031-032-039>041-046>048-054>057-064-181800-
   West Central Minnesota

CITY           SKY/WX    TMP DP  RH WIND       PRES   REMARKS
FERGUS FALLS   MOSUNNY   61  48  63 S16       30.02S
WHEATON        CLOUDY    54  52  94 SE14      30.03S
MORRIS         MOSUNNY   57  54  88 SE14      30.02F
ALEXANDRIA     CLOUDY    51  49  92 SE12      30.07S
ELBOW LAKE     CLOUDY    56  51  81 SE14      30.02F
WADENA         SUNNY     54  46  76 SE12      30.05S
GLENWOOD       CLOUDY    54  52  94 SE10      30.06F
APPLETON       MOSUNNY   61  57  88 E10       30.02F
BENSON         MOSUNNY   61  54  77 S12       30.03F
ORTONVILLE     CLOUDY    55  54  94 SE12      30.01F FOG
MADISON        SUNNY     66  59  77 SE8       30.01F
WILLMAR        FAIR      63  54  72 SE8       30.07F
$$
MNZ033>034-036-042>043-049>051-058-059-181800-
   Central Minnesota

CITY           SKY/WX    TMP DP  RH WIND       PRES   REMARKS
ST CLOUD       PTSUNNY   59  50  72 SE5       30.10S
SAUK CENTRE    CLOUDY    52  49  89 E8        30.07F
PAYNESVILLE    MOSUNNY   54  50  87 E9        30.08F
AITKIN         CLOUDY    54  45  71 SE6       30.09F
PINE RIVER     CLOUDY    48  45  87 SE9       30.11F
BRAINERD       CLOUDY    49  45  86 SE8       30.10F
STAPLES        CLOUDY    52  45  76 SE5       30.07F
LONG PRAIRIE   CLOUDY    50  46  87 E8        30.08F
LITTLE FALLS   CLOUDY    50  45  81 E5        30.09F
LITCHFIELD     SUNNY     61  55  82 E8        30.08F
BUFFALO        SUNNY     62  52  68 E3        30.10F
MAPLE LAKE     SUNNY     60  53  78 E5        30.10S
$$
MNZ037-044-045-052-053-181800-
   East Central Minnesota

CITY           SKY/WX    TMP DP  RH WIND       PRES   REMARKS
PRINCETON      CLOUDY    54  50  87 E6        30.11S
MORA           CLOUDY    48  46  93 E5        30.14S
CAMBRIDGE      CLOUDY    55  46  71 E5        30.10S
RUSH CITY      CLOUDY    53  49  88 SE5       30.12F
MOOSE LAKE     CLOUDY    48  43  81 SE6       30.12S
HINCKLEY       CLOUDY    50  48  93 E6        30.13S
CLOQUET        CLOUDY    46  39  76 E6        30.13F
MCGREGOR       CLOUDY    50  45  81 SE8       30.12F
$$
MNZ071>073-080-081-089-090-097-098-181800-
   Southwest Minnesota

CITY           SKY/WX    TMP DP  RH WIND       PRES   REMARKS
MONTEVIDEO     SUNNY     66  59  77 S6        30.04S
GRANITE FALLS  MOSUNNY   69  58  67 SE12G17   30.05F
CANBY          PTSUNNY   70  59  66 SE7       30.02F
MARSHALL       MOSUNNY   72  55  56 S16G22    30.02S
REDWOOD FALLS  SUNNY     70  56  61 S14       30.05S
OLIVIA         PTSUNNY   68  57  68 SE8       30.05S
PIPESTONE      SUNNY     72  54  53 S13       30.04S
WINDOM         SUNNY     72  55  56 S13       30.06S
WORTHINGTON    SUNNY     70  55  60 S12G20    30.06F
JACKSON        SUNNY     72  54  53 S10G17    30.07F
TRACY          MOSUNNY   71  57  61 S10G20    30.04F
SLAYTON        SUNNY     71  55  58 S5        30.05F
$$
MNZ065>067-074>077-082>085-091>093-181800-
   South Central Minnesota

CITY           SKY/WX    TMP DP  RH WIND       PRES   REMARKS
MANKATO        MOSUNNY   70  52  52 S14       30.07F
NEW ULM        SUNNY     70  57  64 S12       30.06F
ST JAMES       SUNNY     72  54  53 SE12      30.07S
FAIRMONT       SUNNY     68  54  60 S14       30.08S
GLENCOE        SUNNY     68  54  61 SE6       30.08S
FARIBAULT      SUNNY     73  48  40 S9        30.09S
OWATONNA       SUNNY     70  54  56 SE9       30.09S
WASECA         SUNNY     72  48  43 SE12      30.10F
ALBERT LEA     SUNNY     70  54  56 S12G18    30.09F
$$
MNZ078>079-086>088-094>096-181800-
   Southeast Minnesota

CITY           SKY/WX    TMP DP  RH WIND       PRES   REMARKS
ROCHESTER      MOSUNNY   69  54  58 S9        30.11F
RED WING       PTSUNNY   61  55  82 E9        30.11S
STANTON        SUNNY     70  56  61 SE6       30.08F
DODGE CENTER   MOSUNNY   70  54  56 S14       30.10F
WINONA         CLOUDY    57  54  88 E9        30.14F
AUSTIN         SUNNY     66  54  63 S7        30.10S
PRESTON        MOSUNNY   66  58  76 SE13      30.13S
$$
ABBREVIATIONS USED IN REMARKS
   TC - TEMPERATURES IN CELSIUS
  WCI - WIND CHILL INDEX
   HX - HEAT INDEX
  VSB - VISIBILITY
$$



USA.gov is the U.S. government's official web portal to all federal, state and local government web resources and services.